Starlink 31220

operational
NORAD ID: 59039 Int'l Des: 2024-038 Owner: SPXS Country: US Constellation: starlink
LEOCIRCULAR

Starlink 31220について

説明を読み込み中...

リアルタイム位置

3D地球を読み込み中...

次回通過

高度履歴

Altitude vs Time

uPlot chart will show altitude changes over time

軌道要素

1 59039U 24038S 25353.62448110 .00000116 00000-0 13750-4 0 9995
2 59039 43.0030 119.1442 0001750 279.0359 81.0295 15.27572513102510
Epoch: Dec 19, 2025 • Age: 39 hours

現在のステータス

高度 482.6 km
速度 7.63 km/s
衛星直下点 -1.10°S, 74.53°W
打ち上げ日 Feb 25, 2024
運用期間 1.8 years
タイプ internet

技術仕様

分類 Payload
質量 730.00 kg
乾燥質量 700.00 kg
総質量 730.00 kg
長さ 0.30 m
直径 4.10 m
スパン 29.00 m
形状 Box + pan
製造者 SPXS
バスタイプ Starlink V2M
フェーズステータス In Orbit
所有者/国 SPXS/US

大規模コンステレーション

Loading constellations...